Hourly Data Report for December 03, 2003

SHERBROOKE A
QUEBEC

45°26'00.000" N
71°41'00.000" W
241.40 m
7028124
71610
YSC

Download Data

Hourly Data (December 2003)
Hourly Data Report for December 3, 2003
TIME
LST
Temp Definition
°C
Dew Point Definition
°C
Rel Hum Definition
%
Precip. Amount Definition
mm

Wind Dir Definition
10's deg

Wind Spd Definition
km/h
Visibility Definition
km
Stn Press Definition
kPa
Hmdx Definition


Wind Chill Definition


Weather Definition


00:00 -14.3 -18.3 72   25 15 15.0 99.45   -22  
01:00 -14.6 -18.5 72   25 15 15.0 99.50   -22  
02:00 -15.1 -18.8 73   23 9 15.0 99.54   -21  
03:00 -14.8 -18.5 73   24 13 11.3 99.56   -22  
04:00 -14.9 -18.4 75   24 11 15.0 99.58   -21  
05:00 -14.6 -18.1 75   27 13 15.0 99.60   -22 Snow
06:00 -13.7 -17.0 76   26 13 4.8 99.62   -21 Snow
07:00 -13.0 -16.2 77   27 17 9.7 99.65   -21 Snow
08:00 -12.3 -15.8 75   28 26 19.3 99.67   -22 Snow Showers
09:00 -11.3 -15.2 73   28 24 4.8 99.74   -20 Snow Showers
10:00 -10.7 -14.2 75   28 28 4.0 99.76   -20 Snow Showers
11:00 -9.8 -13.7 73   27 19 4.8 99.73   -17 Snow Showers
12:00 -9.5 -13.2 74   27 22 4.8 99.73   -18 Snow Showers
13:00 -9.2 -12.4 78   27 20 1.6 99.72   -17 Snow Showers
14:00 -9.1 -13.0 73   26 20 4.8 99.69   -17 Snow Showers
15:00 -8.8 -13.3 70   27 19 19.3 99.70   -16 Snow Showers
16:00 -9.0 -13.1 72   26 19 19.3 99.69   -16 Snow Showers
17:00 -8.7 -12.5 74   26 17 24.1 99.72   -16 Mostly Cloudy
18:00 -8.6 -12.0 76   26 15 15.0 99.74   -15 Snow
19:00 -8.4 -11.8 76   27 17 15.0 99.76   -15  
20:00 -9.0 -12.1 78   27 11 15.0 99.76   -14  
21:00 -10.3 -13.2 79   25 9 15.0 99.74   -15  
22:00 -10.9 -13.8 79   27 13 15.0 99.72   -17  
23:00 -12.5 -15.1 81   27 9 15.0 99.72   -18  

Notes on Data Quality.

Legend

  • E = Estimated
  • M = Missing
  • NA = Not Available*
  • [empty] = Indicates an unobserved value
Date modified: